K2MIT Weather Reports


Display with metric or nautical units.
time (UTC)temp
F
wind
direction
speed
MPH
gust
MPH
rain 1hr
in
rain 24hr
in
rain mn
in
humidity
%
barometer
mb
20260906094541 63 0 0.0 2.0 0.00 0.00 0.00 88 1013.4
20260906093041 63 0 0.0 2.0 0.00 0.00 0.00 89 1013.2
20260906091540 63 0 0.0 2.0 0.00 0.00 0.00 89 1013.1
20260906090042 62 0 0.0 0.0 0.00 0.00 0.00 90 1013.0
20260906084538 63 0 0.0 2.0 0.00 0.00 0.00 89 1012.7
20260906083040 63 0 1.0 2.0 0.00 0.00 0.00 89 1012.6
20260906081545 63 88 1.0 2.0 0.00 0.00 0.00 89 1012.5
20260906080042 64 0 0.0 0.0 0.00 0.00 0.00 89 1012.7
20260906074548 64 67 0.0 2.0 0.00 0.00 0.00 89 1012.8
20260906073038 64 0 0.0 3.0 0.00 0.00 0.00 89 1012.6
20260906071537 64 100 1.0 5.0 0.00 0.00 0.00 89 1012.3
20260906070035 64 63 1.0 4.0 0.00 0.00 0.00 90 1012.6
20260906064538 64 0 0.0 0.0 0.00 0.00 0.00 90 1012.6
20260906063039 64 0 0.0 0.0 0.00 0.00 0.00 89 1012.5
20260906061538 64 0 0.0 0.0 0.00 0.00 0.00 89 1012.7
20260906060041 64 0 0.0 0.0 0.00 0.00 0.00 89 1013.0
20260906054539 64 0 0.0 0.0 0.00 0.00 0.00 89 1012.8
20260906053039 65 0 0.0 2.0 0.00 0.00 0.00 88 1012.9
20260906051546 65 107 1.0 5.0 0.00 0.00 0.00 87 1012.9
20260906050046 65 49 2.0 5.0 0.00 0.00 0.00 86 1012.8
20260906044539 65 65 1.0 4.0 0.00 0.00 0.00 84 1012.8
20260906043037 65 0 0.0 2.0 0.00 0.00 0.00 82 1012.8
20260906041542 65 0 0.0 2.0 0.00 0.00 0.00 82 1012.7
20260906040045 65 0 0.0 0.0 0.00 0.00 0.00 81 1012.5
20260906034538 65 0 0.0 0.0 0.00 0.00 0.00 81 1012.5
20260906033045 65 0 0.0 2.0 0.00 0.00 0.00 80 1012.6
20260906031537 66 273 0.0 1.0 0.00 0.00 0.00 79 1012.6
20260906030040 67 0 0.0 0.0 0.00 0.00 0.00 76 1012.2
20260906024538 68 84 0.0 2.0 0.00 0.00 0.00 73 1012.4
20260906023037 69 0 0.0 2.0 0.00 0.00 0.00 72 1012.2
20260906021536 69 348 1.0 3.0 0.00 0.00 0.00 70 1012.2
20260906020039 69 329 1.0 2.0 0.00 0.00 0.00 70 1012.2
20260906014540 69 0 0.0 2.0 0.00 0.00 0.00 69 1012.0
20260906013039 70 351 1.0 4.0 0.00 0.00 0.00 68 1012.0
20260906011542 70 337 1.0 3.0 0.00 0.00 0.00 67 1011.9
20260906010042 70 19 0.0 4.0 0.00 0.00 0.00 66 1011.7
20260906004541 71 9 0.0 4.0 0.00 0.00 0.00 65 1011.5
20260906003040 71 309 1.0 3.0 0.00 0.00 0.00 64 1011.3
20260906001541 71 352 1.0 5.0 0.00 0.00 0.00 63 1011.2
20260906000041 72 5 0.0 4.0 0.00 0.00 0.00 63 1011.1
20260905234542 73 0 0.0 2.0 0.00 0.00 0.00 62 1010.7
20260905233045 74 300 0.0 3.0 0.00 0.00 0.00 59 1010.7
20260905231540 74 340 1.0 6.0 0.00 0.00 0.00 60 1010.7
20260905230050 76 0 0.0 4.0 0.00 0.00 0.00 56 1010.7
20260905224557 77 27 1.0 3.0 0.00 0.00 0.00 55 1010.5
20260905223042 78 329 1.0 4.0 0.00 0.00 0.00 55 1010.3
20260905221555 78 342 2.0 7.0 0.00 0.00 0.00 54 1010.3
20260905220042 78 317 3.0 11.0 0.00 0.00 0.00 53 1010.0
20260905214541 78 304 3.0 10.0 0.00 0.00 0.00 53 1009.9
20260905213041 79 293 2.0 9.0 0.00 0.00 0.00 51 1009.9
20260905211540 80 325 2.0 10.0 0.00 0.00 0.00 51 1010.0
20260905210040 80 352 2.0 9.0 0.00 0.00 0.00 50 1009.9
20260905204542 80 19 2.0 9.0 0.00 0.00 0.00 48 1009.9
20260905203100 80 343 3.0 6.0 0.00 0.00 0.00 48 1009.8
20260905201544 80 270 2.0 7.0 0.00 0.00 0.00 48 1009.9
20260905200050 83 342 2.0 7.0 0.00 0.00 0.00 46 1009.6
20260905194541 81 327 2.0 7.0 0.00 0.00 0.00 46 1009.6
20260905193038 83 40 1.0 10.0 0.00 0.00 0.00 44 1009.8
20260905191540 81 327 2.0 7.0 0.00 0.00 0.00 48 1009.9
20260905190041 82 319 0.0 6.0 0.00 0.00 0.00 48 1009.9
20260905184545 81 279 2.0 9.0 0.00 0.00 0.00 49 1010.2
20260905183040 80 333 1.0 7.0 0.00 0.00 0.00 50 1009.9
20260905181559 81 328 1.0 5.0 0.00 0.00 0.00 51 1010.1
20260905180040 76 28 3.0 8.0 0.00 0.00 0.00 57 1010.2
20260905174549 79 291 2.0 11.0 0.00 0.00 0.00 53 1010.5
20260905173041 78 60 2.0 8.0 0.00 0.00 0.00 54 1010.6
20260905171544 78 32 3.0 8.0 0.00 0.00 0.00 53 1010.7
20260905170041 76 281 3.0 10.0 0.00 0.00 0.00 56 1010.5
20260905164539 77 318 2.0 8.0 0.00 0.00 0.00 57 1010.4
20260905163041 75 317 2.0 11.0 0.00 0.00 0.00 58 1010.6
20260905161540 78 306 2.0 9.0 0.00 0.00 0.00 54 1010.6
20260905160107 76 360 4.0 12.0 0.00 0.00 0.00 57 1010.6
20260905154547 77 275 3.0 8.0 0.00 0.00 0.00 56 1010.8
20260905153041 77 19 4.0 11.0 0.00 0.00 0.00 56 1010.5
20260905151541 76 61 4.0 9.0 0.00 0.00 0.00 57 1010.8
20260905150038 77 322 2.0 11.0 0.00 0.00 0.00 58 1010.7
20260905144543 76 342 3.0 11.0 0.00 0.00 0.00 58 1010.7
20260905143041 75 331 3.0 15.0 0.00 0.00 0.00 61 1010.7
20260905141543 74 206 2.0 8.0 0.00 0.00 0.00 63 1010.8
20260905140041 75 65 2.0 10.0 0.00 0.00 0.00 66 1010.7
20260905134541 73 313 3.0 11.0 0.00 0.00 0.00 66 1010.8
20260905133041 72 26 2.0 7.0 0.00 0.00 0.00 69 1010.6
20260905131540 72 286 2.0 8.0 0.00 0.00 0.00 68 1010.9
20260905130042 72 0 2.0 7.0 0.00 0.00 0.00 68 1011.1
20260905124543 71 314 3.0 11.0 0.00 0.00 0.00 70 1011.1
20260905123040 70 9 2.0 7.0 0.00 0.00 0.00 74 1011.0
20260905121543 68 319 2.0 7.0 0.00 0.00 0.00 77 1010.8
20260905120042 67 9 2.0 6.0 0.00 0.00 0.00 79 1011.2
20260905114539 67 350 1.0 4.0 0.00 0.00 0.00 79 1011.0
20260905113040 66 307 2.0 4.0 0.00 0.00 0.00 83 1010.7
20260905111538 65 319 2.0 3.0 0.00 0.00 0.00 85 1010.5
20260905110041 64 306 1.0 3.0 0.00 0.00 0.00 86 1010.2
20260905104542 64 298 2.0 4.0 0.00 0.00 0.00 86 1010.2
20260905103045 64 332 1.0 3.0 0.00 0.00 0.00 86 1010.1
20260905101538 64 306 1.0 3.0 0.00 0.00 0.00 86 1010.2
20260905100104 64 328 0.0 2.0 0.00 0.00 0.00 85 1010.1